Hourly Weather Vedernica

Today, 2 July, Thursday

Time Temperature Precipitation Wind Pressure Humidity
00:00 +13°C° 0 mm 3 mps 741 mmHg 97%
01:00 +12°C° 0 mm 3 mps 741 mmHg 97%
02:00 +12°C° 0 mm 3 mps 741 mmHg 98%
03:00 +13°C° 0 mm 3 mps 741 mmHg 97%
04:00 +13°C° 0 mm 3 mps 741 mmHg 96%
05:00 +14°C° 0 mm 3 mps 741 mmHg 96%
06:00 +16°C° 0.4 mm 3 mps 742 mmHg 93%
07:00 +17°C° 0.4 mm 3 mps 742 mmHg 90%
08:00 +18°C° 0.4 mm 3 mps 742 mmHg 87%
09:00 +19°C° 0.5 mm 4 mps 742 mmHg 82%
10:00 +19°C° 0.5 mm 4 mps 742 mmHg 77%
11:00 +20°C° 0.5 mm 4 mps 742 mmHg 73%
12:00 +21°C° 0.1 mm 4 mps 742 mmHg 66%
13:00 +22°C° 0.1 mm 4 mps 742 mmHg 60%
14:00 +25°C° 0.1 mm 4 mps 742 mmHg 54%
15:00 +24°C° 0 mm 3 mps 742 mmHg 58%
16:00 +24°C° 0 mm 3 mps 742 mmHg 62%
17:00 +24°C° 0 mm 2 mps 742 mmHg 67%
18:00 +21°C° 0.1 mm 2 mps 742 mmHg 74%
19:00 +19°C° 0.1 mm 2 mps 742 mmHg 81%
20:00 +18°C° 0.1 mm 2 mps 743 mmHg 89%
21:00 +17°C° 0 mm 2 mps 743 mmHg 91%
22:00 +16°C° 0 mm 2 mps 743 mmHg 94%
23:00 +16°C° 0 mm 2 mps 742 mmHg 96%

Tomorrow, 3 July, Friday

Time Temperature Precipitation Wind Pressure Humidity
00:00 +15°C° 0 mm 2 mps 743 mmHg 96%
01:00 +15°C° 0 mm 2 mps 743 mmHg 96%
02:00 +15°C° 0 mm 2 mps 743 mmHg 97%
03:00 +15°C° 0 mm 2 mps 743 mmHg 96%
04:00 +16°C° 0 mm 2 mps 743 mmHg 95%
05:00 +17°C° 0 mm 2 mps 743 mmHg 94%
06:00 +18°C° 0 mm 2 mps 743 mmHg 90%
07:00 +20°C° 0 mm 3 mps 743 mmHg 85%
08:00 +22°C° 0 mm 3 mps 743 mmHg 80%
09:00 +22°C° 0.1 mm 3 mps 744 mmHg 77%
10:00 +24°C° 0.1 mm 3 mps 744 mmHg 74%
11:00 +25°C° 0.1 mm 4 mps 744 mmHg 71%
12:00 +26°C° 0.2 mm 4 mps 744 mmHg 66%
13:00 +26°C° 0.2 mm 4 mps 744 mmHg 62%
14:00 +26°C° 0.2 mm 4 mps 744 mmHg 57%
15:00 +26°C° 0 mm 3 mps 744 mmHg 59%
16:00 +26°C° 0 mm 3 mps 744 mmHg 62%
17:00 +25°C° 0 mm 2 mps 744 mmHg 64%
18:00 +24°C° 0 mm 2 mps 744 mmHg 68%
19:00 +22°C° 0 mm 1 mps 744 mmHg 72%
20:00 +20°C° 0 mm 1 mps 744 mmHg 76%
21:00 +20°C° 0 mm 1 mps 744 mmHg 76%
22:00 +19°C° 0 mm 1 mps 745 mmHg 76%
23:00 +17°C° 0 mm 0 mps 745 mmHg 76%

Day after tomorrow, 4 July, Saturday

Time Temperature Precipitation Wind Pressure Humidity
00:00 +18°C° 0 mm 1 mps 745 mmHg 77%
01:00 +18°C° 0 mm 1 mps 745 mmHg 78%
02:00 +18°C° 0 mm 1 mps 744 mmHg 79%
03:00 +17°C° 0.4 mm 2 mps 744 mmHg 83%
04:00 +17°C° 0.4 mm 2 mps 744 mmHg 87%
05:00 +17°C° 0.4 mm 2 mps 744 mmHg 91%
06:00 +17°C° 1.8 mm 2 mps 744 mmHg 93%
07:00 +18°C° 1.8 mm 1 mps 744 mmHg 95%
08:00 +18°C° 1.8 mm 1 mps 744 mmHg 98%
09:00 +18°C° 0.3 mm 1 mps 744 mmHg 94%
10:00 +19°C° 0.3 mm 1 mps 744 mmHg 91%
11:00 +18°C° 0.3 mm 0 mps 744 mmHg 88%
12:00 +22°C° 0 mm 1 mps 744 mmHg 80%
13:00 +23°C° 0 mm 1 mps 744 mmHg 72%
14:00 +25°C° 0 mm 1 mps 744 mmHg 64%
15:00 +24°C° 0.1 mm 1 mps 744 mmHg 68%
16:00 +24°C° 0.1 mm 2 mps 744 mmHg 72%
17:00 +24°C° 0.1 mm 2 mps 744 mmHg 76%
18:00 +23°C° 0.1 mm 1 mps 744 mmHg 81%
19:00 +21°C° 0.1 mm 1 mps 744 mmHg 85%
20:00 +20°C° 0.1 mm 1 mps 744 mmHg 89%
21:00 +19°C° 0 mm 1 mps 744 mmHg 89%
22:00 +17°C° 0 mm 2 mps 745 mmHg 88%
23:00 +16°C° 0 mm 2 mps 745 mmHg 88%

5 July, Sunday

Time Temperature Precipitation Wind Pressure Humidity
00:00 +15°C° 0 mm 2 mps 745 mmHg 87%
01:00 +14°C° 0 mm 2 mps 745 mmHg 86%
02:00 +13°C° 0 mm 2 mps 745 mmHg 86%
03:00 +14°C° 0 mm 2 mps 745 mmHg 85%
04:00 +14°C° 0 mm 2 mps 745 mmHg 85%
05:00 +15°C° 0 mm 2 mps 746 mmHg 84%
06:00 +17°C° 0 mm 2 mps 746 mmHg 77%
07:00 +19°C° 0 mm 2 mps 746 mmHg 70%
08:00 +21°C° 0 mm 2 mps 746 mmHg 63%
09:00 +22°C° 0 mm 3 mps 746 mmHg 62%
10:00 +24°C° 0 mm 3 mps 745 mmHg 60%
11:00 +25°C° 0 mm 3 mps 745 mmHg 58%
12:00 +25°C° 0.1 mm 3 mps 745 mmHg 60%
13:00 +25°C° 0.1 mm 3 mps 745 mmHg 61%
14:00 +26°C° 0.1 mm 3 mps 745 mmHg 63%
15:00 +25°C° 0.1 mm 3 mps 744 mmHg 66%
16:00 +25°C° 0.1 mm 3 mps 744 mmHg 70%
17:00 +25°C° 0.1 mm 3 mps 744 mmHg 73%
18:00 +22°C° 0.1 mm 3 mps 744 mmHg 78%
19:00 +21°C° 0.1 mm 2 mps 744 mmHg 83%
20:00 +20°C° 0.1 mm 2 mps 744 mmHg 88%
21:00 +19°C° 0.1 mm 2 mps 743 mmHg 89%
22:00 +19°C° 0.1 mm 3 mps 743 mmHg 90%
23:00 +18°C° 0.1 mm 3 mps 743 mmHg 91%

6 July, Monday

Time Temperature Precipitation Wind Pressure Humidity
00:00 +18°C° 0 mm 3 mps 743 mmHg 92%
01:00 +17°C° 0 mm 3 mps 742 mmHg 93%
02:00 +17°C° 0 mm 3 mps 742 mmHg 94%
03:00 +17°C° 0 mm 3 mps 742 mmHg 93%
04:00 +18°C° 0 mm 4 mps 742 mmHg 91%
05:00 +18°C° 0 mm 4 mps 742 mmHg 89%
06:00 +20°C° 0 mm 5 mps 741 mmHg 84%
07:00 +21°C° 0 mm 5 mps 741 mmHg 78%
08:00 +23°C° 0 mm 6 mps 741 mmHg 72%
09:00 +23°C° 0.1 mm 6 mps 740 mmHg 71%
10:00 +24°C° 0.1 mm 7 mps 740 mmHg 70%
11:00 +26°C° 0.1 mm 7 mps 740 mmHg 69%
12:00 +24°C° 0.6 mm 7 mps 740 mmHg 73%
13:00 +24°C° 0.6 mm 6 mps 739 mmHg 77%
14:00 +23°C° 0.6 mm 6 mps 739 mmHg 81%
15:00 +23°C° 0.3 mm 6 mps 739 mmHg 82%
16:00 +23°C° 0.3 mm 5 mps 739 mmHg 83%
17:00 +22°C° 0.3 mm 5 mps 739 mmHg 84%
18:00 +21°C° 0.1 mm 4 mps 739 mmHg 86%
19:00 +21°C° 0.1 mm 4 mps 739 mmHg 88%
20:00 +20°C° 0.1 mm 3 mps 740 mmHg 90%
21:00 +19°C° 0 mm 3 mps 740 mmHg 90%
22:00 +18°C° 0 mm 3 mps 740 mmHg 91%
23:00 +18°C° 0 mm 3 mps 740 mmHg 91%

7 July, Tuesday

Time Temperature Precipitation Wind Pressure Humidity
00:00 +17°C° 0 mm 3 mps 740 mmHg 92%
01:00 +16°C° 0 mm 3 mps 741 mmHg 93%
02:00 +16°C° 0 mm 3 mps 741 mmHg 94%
03:00 +16°C° 0 mm 3 mps 741 mmHg 93%
04:00 +17°C° 0 mm 3 mps 741 mmHg 92%
05:00 +17°C° 0 mm 3 mps 741 mmHg 91%
06:00 +19°C° 0 mm 3 mps 741 mmHg 84%
07:00 +20°C° 0 mm 4 mps 741 mmHg 76%
08:00 +22°C° 0 mm 5 mps 741 mmHg 69%
09:00 +22°C° 0.3 mm 5 mps 741 mmHg 70%
10:00 +23°C° 0.3 mm 6 mps 741 mmHg 72%
11:00 +23°C° 0.3 mm 6 mps 741 mmHg 73%
12:00 +24°C° 0.1 mm 6 mps 741 mmHg 67%
13:00 +25°C° 0.1 mm 5 mps 741 mmHg 61%
14:00 +25°C° 0.1 mm 5 mps 741 mmHg 55%
15:00 +25°C° 0 mm 5 mps 742 mmHg 56%
16:00 +25°C° 0 mm 4 mps 742 mmHg 56%
17:00 +25°C° 0 mm 4 mps 742 mmHg 57%
18:00 +22°C° 0 mm 3 mps 742 mmHg 61%
19:00 +20°C° 0 mm 3 mps 742 mmHg 66%
20:00 +18°C° 0 mm 2 mps 742 mmHg 70%
21:00 +17°C° 0 mm 2 mps 743 mmHg 70%
22:00 +15°C° 0 mm 2 mps 743 mmHg 70%
23:00 +14°C° 0 mm 2 mps 743 mmHg 71%
Show more